E2883 Weather Reports


time (UTC)temp
F
wind
direction
speed
knots
gust
knots
rain 1hr
in
rain 24hr
in
rain mn
in
humidity
%
barometer
mb
20211025041333 71 200 0.0 0.0 0.00 0.01 0.01 88 1007.9
20211025040831 71 200 0.0 0.0 0.00 0.01 0.01 88 1007.8
20211025040330 71 200 0.0 0.0 0.00 0.01 0.01 88 1007.8
20211025035839 71 200 0.0 0.0 0.00 0.01 0.01 88 1007.7
20211025035331 72 200 0.0 0.0 0.00 0.01 0.01 88 1007.7
20211025034830 72 200 0.0 0.0 0.00 0.01 0.01 88 1007.7
20211025034331 72 200 0.0 0.0 0.00 0.01 0.01 88 1007.7
20211025033838 72 200 0.0 0.0 0.00 0.01 0.01 88 1007.6
20211025033330 72 200 0.0 0.0 0.00 0.01 0.01 88 1007.5
20211025032833 72 200 0.0 0.0 0.00 0.01 0.01 88 1007.4
20211025032330 72 200 0.0 0.0 0.00 0.01 0.01 88 1007.4
20211025031834 72 200 0.0 0.0 0.00 0.01 0.01 88 1007.3
20211025031330 72 200 0.0 0.0 0.00 0.01 0.01 88 1007.2
20211025030833 72 200 0.0 0.0 0.00 0.01 0.01 88 1007.2
20211025030330 73 200 0.0 0.0 0.00 0.01 0.01 88 1007.2
20211025025822 73 200 0.0 0.0 0.00 0.01 0.01 88 1007.1
20211025025312 73 200 0.0 0.0 0.00 0.01 0.01 87 1007.1
20211025024809 73 200 0.0 0.0 0.00 0.01 0.01 87 1007.1
20211025024305 73 200 0.0 0.0 0.00 0.01 0.01 87 1007.0
20211025023808 73 200 0.0 0.0 0.00 0.01 0.01 87 1006.9
20211025023304 73 200 0.0 0.0 0.00 0.01 0.01 87 1006.8
20211025022804 74 200 0.0 0.0 0.00 0.01 0.01 87 1006.9
20211025022305 74 200 0.0 0.0 0.00 0.01 0.01 86 1006.9
20211025021804 74 200 0.0 0.0 0.00 0.01 0.01 86 1006.9
20211025021304 74 200 0.0 0.0 0.00 0.01 0.01 85 1006.8
20211025020805 74 200 0.0 0.0 0.00 0.01 0.01 85 1006.8
20211025020300 74 200 0.0 0.0 0.00 0.01 0.01 85 1006.8
20211025015800 74 200 0.0 0.0 0.00 0.01 0.01 85 1006.8
20211025015301 74 200 0.0 0.0 0.00 0.01 0.01 84 1006.7
20211025014742 74 200 0.0 0.0 0.00 0.01 0.01 84 1006.6
20211025014230 74 200 0.0 0.0 0.00 0.01 0.01 84 1006.5
20211025013730 74 200 0.0 0.0 0.00 0.01 0.01 84 1006.5
20211025013216 74 200 0.0 0.0 0.00 0.01 0.01 84 1006.5
20211025012715 75 200 0.0 0.0 0.00 0.01 0.01 83 1006.4
20211025012204 75 200 0.0 0.0 0.00 0.01 0.01 83 1006.4
20211025011704 75 200 0.0 0.0 0.00 0.01 0.01 83 1006.5
20211025011207 75 200 0.0 0.0 0.00 0.01 0.01 83 1006.4
20211025010703 75 200 0.0 0.0 0.00 0.01 0.01 82 1006.4
20211025010206 76 200 0.0 0.0 0.00 0.01 0.01 82 1006.4
20211025005706 76 200 0.0 0.0 0.00 0.01 0.01 81 1006.4
20211025005210 76 200 0.0 0.0 0.00 0.01 0.01 81 1006.4
20211025004703 76 200 0.0 0.0 0.00 0.01 0.01 80 1006.5
20211025004203 76 200 0.0 0.0 0.00 0.01 0.01 80 1006.5
20211025003704 77 200 0.0 0.0 0.00 0.01 0.01 79 1006.5
20211025003204 77 200 0.0 0.0 0.00 0.01 0.01 79 1006.3
20211025002708 77 200 0.0 0.0 0.00 0.01 0.01 79 1006.2
20211025002203 77 200 0.0 0.0 0.00 0.01 0.01 78 1006.2
20211025001705 78 200 0.0 0.0 0.00 0.01 0.01 78 1006.2
20211025001204 78 200 0.0 0.0 0.00 0.01 0.01 78 1006.2
20211025000706 78 200 0.0 0.0 0.00 0.01 0.01 78 1006.2
20211025000205 78 200 0.0 0.0 0.00 0.01 0.01 78 1006.2
20211024235703 78 200 0.0 0.0 0.00 0.01 0.01 77 1006.2
20211024235203 78 200 0.9 1.7 0.00 0.01 0.01 77 1006.1
20211024234701 79 200 0.9 2.6 0.00 0.01 0.01 76 1006.0
20211024234202 79 200 0.9 2.6 0.00 0.01 0.01 75 1006.1
20211024233702 79 200 0.0 1.7 0.00 0.01 0.01 75 1006.1
20211024233206 80 200 0.0 0.9 0.00 0.01 0.01 74 1006.0
20211024232701 80 200 0.9 6.1 0.00 0.01 0.01 74 1006.0
20211024232202 80 200 1.7 6.1 0.00 0.01 0.01 73 1005.9
20211024231703 80 200 0.9 4.3 0.00 0.01 0.01 73 1006.0
20211024231209 80 200 0.0 2.6 0.00 0.01 0.01 73 1006.0
20211024230702 80 200 0.9 4.3 0.00 0.01 0.01 73 1006.0
20211024230202 80 200 0.9 4.3 0.00 0.01 0.01 73 1006.1
20211024225702 81 200 0.0 2.6 0.00 0.01 0.01 72 1006.0
20211024225202 81 200 0.9 3.5 0.00 0.01 0.01 71 1006.0
20211024224701 81 200 0.9 5.2 0.00 0.01 0.01 70 1005.9
20211024224203 82 200 0.9 5.2 0.00 0.01 0.01 70 1005.9
20211024223705 82 203 0.0 0.0 0.00 0.01 0.01 69 1006.0
20211024223203 82 203 0.9 4.3 0.00 0.01 0.01 69 1006.0
20211024222704 82 203 0.9 4.3 0.00 0.01 0.01 68 1006.0
20211024222201 83 203 0.9 4.3 0.00 0.01 0.01 68 1006.0
20211024221702 83 203 0.0 3.5 0.00 0.01 0.01 66 1006.0
20211024221204 84 203 0.9 3.5 0.00 0.01 0.01 65 1006.2
20211024220709 84 202 0.0 3.5 0.00 0.01 0.01 67 1006.1
20211024220204 84 202 0.0 3.5 0.00 0.01 0.01 65 1006.0
20211024215701 84 202 0.0 0.0 0.00 0.01 0.01 66 1006.0
20211024215202 84 202 0.0 3.5 0.00 0.01 0.01 66 1006.0
20211024214702 84 202 0.0 3.5 0.00 0.01 0.01 66 1006.0
20211024214203 84 204 0.0 3.5 0.00 0.01 0.01 67 1006.0
20211024213702 84 204 0.9 4.3 0.00 0.01 0.01 65 1006.0
20211024213200 84 205 0.0 4.3 0.00 0.01 0.01 65 1006.0
20211024212701 84 205 0.0 6.1 0.00 0.01 0.01 65 1006.0
20211024212204 84 205 0.9 6.1 0.00 0.01 0.01 65 1005.9
20211024211704 84 194 0.9 4.3 0.00 0.01 0.01 66 1005.8
20211024211203 83 194 0.0 2.6 0.00 0.01 0.01 67 1005.8
20211024210702 83 193 0.0 6.1 0.00 0.01 0.01 68 1005.9
20211024210203 83 193 0.9 6.1 0.00 0.01 0.01 67 1005.9
20211024205704 83 194 0.9 6.1 0.00 0.01 0.01 65 1005.8
20211024205206 84 196 0.9 6.1 0.00 0.01 0.01 66 1005.9
20211024204702 83 195 1.7 5.2 0.00 0.01 0.01 67 1005.7
20211024204204 82 195 0.9 5.2 0.00 0.01 0.01 68 1005.7
20211024203645 82 195 0.0 5.2 0.00 0.01 0.01 68 1005.7
20211024203145 82 196 0.0 4.3 0.00 0.01 0.01 68 1005.7
20211024202646 82 196 0.9 7.0 0.00 0.01 0.01 68 1005.7
20211024202145 82 196 1.7 7.0 0.00 0.01 0.01 68 1005.7
20211024201642 82 198 0.9 6.1 0.00 0.01 0.01 67 1005.7
20211024201148 82 200 0.9 4.3 0.00 0.01 0.01 68 1005.7
20211024200631 83 200 0.9 7.8 0.00 0.01 0.01 66 1005.7
20211024200129 83 202 0.9 7.8 0.00 0.01 0.01 67 1005.7
20211024195630 83 208 0.9 6.1 0.00 0.01 0.01 66 1005.7
20211024195129 83 202 1.7 6.1 0.00 0.01 0.01 68 1005.9
20211024194632 83 199 0.9 6.1 0.00 0.01 0.01 67 1005.9
20211024194133 83 199 1.7 9.6 0.00 0.01 0.01 68 1006.0
20211024193634 83 190 1.7 9.6 0.00 0.01 0.01 67 1006.1
20211024193128 83 205 0.9 9.6 0.00 0.01 0.01 68 1006.1
20211024192633 83 213 0.0 5.2 0.00 0.01 0.01 68 1006.2
20211024192133 82 213 0.9 7.0 0.00 0.01 0.01 69 1006.1
20211024191632 82 211 0.9 7.0 0.00 0.01 0.01 68 1006.2
20211024191133 82 203 0.9 7.0 0.00 0.01 0.01 66 1006.4
20211024190631 82 194 0.9 7.0 0.00 0.01 0.01 70 1006.5
20211024190128 82 194 0.0 4.3 0.00 0.01 0.01 70 1006.6
20211024185633 81 194 0.9 7.0 0.00 0.01 0.01 71 1006.7
20211024185132 80 197 0.9 7.0 0.00 0.01 0.01 72 1006.7
20211024184635 81 200 1.7 5.2 0.00 0.01 0.01 70 1006.9
20211024184130 81 199 1.7 5.2 0.00 0.01 0.01 69 1007.0
20211024183629 82 199 0.9 5.2 0.00 0.01 0.01 69 1007.0
20211024183129 81 199 0.9 6.1 0.00 0.01 0.01 71 1007.1
20211024182631 80 198 0.9 6.1 0.00 0.01 0.01 72 1007.0
20211024182128 80 198 0.9 5.2 0.00 0.01 0.01 75 1007.1
20211024181632 80 198 0.9 8.7 0.00 0.01 0.01 75 1007.2
20211024181129 79 197 0.9 8.7 0.00 0.01 0.01 75 1007.2
20211024180631 79 198 0.9 6.1 0.00 0.01 0.01 76 1007.3
20211024180130 78 196 1.7 7.0 0.00 0.01 0.01 77 1007.4
20211024175631 78 196 1.7 7.0 0.00 0.01 0.01 76 1007.4
20211024175130 78 194 1.7 6.1 0.00 0.01 0.01 78 1007.5
20211024174633 78 193 0.9 6.1 0.00 0.01 0.01 78 1007.5
20211024174128 77 190 0.9 3.5 0.00 0.01 0.01 82 1007.7
20211024173631 76 190 1.7 5.2 0.00 0.01 0.01 82 1007.8
20211024173129 76 190 1.7 5.2 0.00 0.01 0.01 81 1008.0
20211024172629 76 189 1.7 3.5 0.00 0.01 0.01 82 1008.1
20211024172128 76 189 1.7 3.5 0.00 0.01 0.01 82 1008.2
20211024171630 76 189 1.7 3.5 0.00 0.01 0.01 82 1008.2
20211024171128 76 189 0.9 3.5 0.00 0.01 0.01 83 1008.3
20211024170629 76 189 0.0 3.5 0.00 0.01 0.01 83 1008.3
20211024170129 76 189 0.9 3.5 0.00 0.01 0.01 83 1008.3
20211024165630 76 189 1.7 3.5 0.00 0.01 0.01 83 1008.3
20211024165130 76 189 1.7 4.3 0.00 0.01 0.01 84 1008.1
20211024164629 76 189 1.7 4.3 0.00 0.01 0.01 84 1007.9
20211024164130 76 189 1.7 6.1 0.00 0.01 0.01 85 1008.0
20211024163633 76 189 0.9 6.1 0.00 0.01 0.01 85 1007.8
20211024163133 75 189 1.7 6.1 0.00 0.01 0.01 85 1007.7
20211024162629 75 189 2.6 6.1 0.00 0.01 0.01 85 1007.7
20211024162120 75 188 0.9 4.3 0.00 0.01 0.01 85 1007.5
20211024161610 75 188 0.0 0.9 0.00 0.01 0.01 85 1007.6
20211024161105 75 188 1.7 4.3 0.00 0.01 0.01 86 1007.5
20211024160601 75 188 1.7 6.1 0.00 0.01 0.01 86 1007.5
20211024160058 74 188 1.7 6.1 0.00 0.01 0.01 87 1007.5
20211024155601 74 188 0.9 4.3 0.00 0.01 0.01 87 1007.6
20211024155054 74 188 1.7 4.3 0.00 0.01 0.01 87 1007.6
20211024154537 74 188 1.7 6.1 0.00 0.01 0.01 88 1007.7
20211024154033 74 188 1.7 6.1 0.00 0.01 0.01 88 1007.7
20211024153525 74 188 1.7 5.2 0.00 0.01 0.01 89 1007.7
20211024153020 74 188 0.9 5.2 0.00 0.01 0.01 89 1007.6
20211024152509 73 188 0.9 4.3 0.00 0.01 0.01 89 1007.7
20211024152010 73 188 1.7 4.3 0.00 0.01 0.01 89 1007.6
20211024151507 73 188 1.7 6.1 0.00 0.01 0.01 89 1007.6
20211024151006 72 188 2.6 7.0 0.00 0.01 0.01 89 1007.5
20211024150508 72 188 2.6 7.0 0.00 0.01 0.01 89 1007.5
20211024150008 72 188 1.7 7.0 0.00 0.01 0.01 89 1007.5
20211024145508 72 188 1.7 7.0 0.00 0.01 0.01 89 1007.4
20211024145010 72 188 1.7 5.2 0.00 0.01 0.01 89 1007.4
20211024144509 72 188 0.9 4.3 0.00 0.01 0.01 88 1007.3
20211024144008 72 188 0.9 3.5 0.00 0.01 0.01 88 1007.3
20211024143505 72 188 1.7 5.2 0.00 0.01 0.01 89 1007.2
20211024143003 71 188 1.7 5.2 0.00 0.01 0.01 89 1007.1
20211024142501 71 188 1.7 4.3 0.00 0.01 0.01 89 1007.0
20211024142005 71 188 1.7 4.3 0.00 0.01 0.01 89 1006.9
20211024141503 71 188 1.7 5.2 0.00 0.01 0.01 89 1006.8
20211024141003 71 188 2.6 5.2 0.00 0.01 0.01 89 1006.7
20211024140502 71 188 1.7 5.2 0.00 0.01 0.01 89 1006.7
20211024140006 71 188 1.7 5.2 0.00 0.01 0.01 89 1006.6
20211024135500 71 188 0.9 4.3 0.00 0.01 0.01 89 1006.5
20211024135015 71 188 0.0 2.6 0.00 0.01 0.01 89 1006.4
20211024134503 71 188 0.0 2.6 0.00 0.01 0.01 89 1006.4
20211024134004 71 188 0.0 0.0 0.00 0.01 0.01 89 1006.3
20211024133505 71 188 0.9 2.6 0.00 0.01 0.01 89 1006.3
20211024133001 71 188 0.9 2.6 0.00 0.01 0.01 89 1006.2
20211024132502 71 188 1.7 4.3 0.01 0.01 0.01 89 1006.0
20211024132006 71 188 1.7 4.3 0.01 0.01 0.01 89 1006.0
20211024131503 71 188 1.7 4.3 0.01 0.01 0.01 89 1006.0
20211024131003 71 188 0.9 4.3 0.01 0.01 0.01 89 1006.0
20211024130501 71 188 0.9 4.3 0.01 0.01 0.01 89 1005.9
20211024130014 70 188 0.0 3.5 0.01 0.01 0.01 89 1006.0
20211024125505 70 188 0.9 4.3 0.01 0.01 0.01 89 1006.0
20211024125009 70 188 1.7 4.3 0.01 0.01 0.01 89 1005.9
20211024124501 70 188 0.9 4.3 0.01 0.01 0.01 89 1005.9
20211024124003 70 188 0.9 2.6 0.01 0.01 0.01 89 1005.8
20211024123502 71 188 0.9 3.5 0.01 0.01 0.01 89 1005.8
20211024123005 71 188 0.0 3.5 0.01 0.01 0.01 89 1005.8
20211024122508 71 188 0.9 5.2 0.00 0.00 0.00 89 1005.8
20211024122011 71 188 0.9 5.2 0.00 0.00 0.00 89 1005.8
20211024121503 71 188 0.9 3.5 0.00 0.00 0.00 89 1005.8
20211024121003 71 188 0.9 3.5 0.00 0.00 0.00 89 1005.7
20211024120504 71 188 1.7 4.3 0.00 0.00 0.00 89 1005.8
20211024120013 71 188 0.9 4.3 0.00 0.00 0.00 89 1005.8
20211024115507 70 188 0.9 4.3 0.00 0.00 0.00 89 1005.8
20211024115002 70 188 0.9 4.3 0.00 0.00 0.00 89 1005.7
20211024114500 70 188 0.9 6.1 0.00 0.00 0.00 89 1005.6
20211024114010 70 188 0.9 6.1 0.00 0.00 0.00 89 1005.5
20211024113507 70 188 0.9 6.1 0.00 0.00 0.00 89 1005.5
20211024113002 70 188 1.7 6.1 0.00 0.00 0.00 89 1005.5
20211024112505 70 188 2.6 5.2 0.00 0.00 0.00 89 1005.5
20211024112002 70 188 2.6 5.2 0.00 0.00 0.00 89 1005.5
20211024111502 70 188 2.6 5.2 0.00 0.00 0.00 89 1005.5
20211024111006 70 188 2.6 7.0 0.00 0.00 0.00 89 1005.5
20211024110503 70 188 2.6 7.0 0.00 0.00 0.00 89 1005.4
20211024110002 70 188 2.6 7.0 0.00 0.00 0.00 89 1005.5
20211024105502 70 188 2.6 7.0 0.00 0.00 0.00 89 1005.4
20211024105006 70 188 3.5 7.8 0.00 0.00 0.00 89 1005.4
20211024104502 70 188 3.5 7.8 0.00 0.00 0.00 89 1005.2
20211024104002 70 189 2.6 7.8 0.00 0.00 0.00 89 1005.4
20211024103505 70 189 3.5 5.2 0.00 0.00 0.00 89 1005.2
20211024103004 70 189 2.6 8.7 0.00 0.00 0.00 89 1005.2
20211024102503 70 189 2.6 8.7 0.00 0.00 0.00 89 1005.2
20211024102006 70 188 3.5 6.1 0.00 0.00 0.00 89 1005.2
20211024101503 70 188 3.5 6.1 0.00 0.00 0.00 89 1005.2
20211024101004 70 188 3.5 6.1 0.00 0.00 0.00 89 1005.1
20211024100501 70 188 2.6 6.1 0.00 0.00 0.00 89 1005.2
20211024100000 70 188 3.5 6.1 0.00 0.00 0.00 89 1005.1
20211024095454 70 188 2.6 6.1 0.00 0.00 0.00 89 1005.2
20211024094944 70 188 2.6 6.1 0.00 0.00 0.00 89 1005.2
20211024094445 70 188 3.5 9.6 0.00 0.00 0.00 89 1005.2
20211024093943 70 188 2.6 9.6 0.00 0.00 0.00 89 1005.2
20211024093447 70 189 2.6 5.2 0.00 0.00 0.00 89 1005.2
20211024092943 70 189 2.6 6.1 0.00 0.00 0.00 89 1005.4
20211024092441 70 189 2.6 7.8 0.00 0.00 0.00 89 1005.4
20211024091941 70 189 3.5 9.6 0.00 0.00 0.00 89 1005.4
20211024091442 70 189 3.5 9.6 0.00 0.00 0.00 89 1005.4
20211024090943 70 191 3.5 8.7 0.00 0.00 0.00 89 1005.5
20211024090436 70 192 3.5 8.7 0.00 0.00 0.00 89 1005.5
20211024085931 70 193 3.5 7.0 0.00 0.00 0.00 88 1005.7
20211024085431 70 194 3.5 7.0 0.00 0.00 0.00 88 1005.8
20211024084930 70 194 4.3 8.7 0.00 0.00 0.00 88 1005.7
20211024084429 70 194 4.3 8.7 0.00 0.00 0.00 88 1005.8
20211024083929 70 192 3.5 7.8 0.00 0.00 0.00 89 1005.8
20211024083430 70 191 2.6 7.8 0.00 0.00 0.00 89 1005.9
20211024082929 70 190 2.6 7.0 0.00 0.00 0.00 89 1005.9
20211024082435 70 190 3.5 8.7 0.00 0.00 0.00 89 1006.0
20211024081930 70 189 3.5 8.7 0.00 0.00 0.00 89 1006.1
20211024081430 69 189 2.6 6.1 0.00 0.00 0.00 88 1006.2
20211024080930 69 189 1.7 4.3 0.00 0.00 0.00 88 1006.3
20211024080423 69 189 2.6 7.0 0.00 0.00 0.00 88 1006.3
20211024075920 69 189 3.5 7.0 0.00 0.00 0.00 88 1006.5
20211024075418 69 190 3.5 8.7 0.00 0.00 0.00 88 1006.5
20211024074913 69 190 3.5 9.6 0.00 0.00 0.00 88 1006.5
20211024074413 69 190 3.5 9.6 0.00 0.00 0.00 88 1006.5
20211024073915 69 189 3.5 8.7 0.00 0.00 0.00 88 1006.5
20211024073408 69 189 3.5 8.7 0.00 0.00 0.00 88 1006.5
20211024072913 69 190 4.3 10.4 0.00 0.00 0.00 88 1006.6
20211024072410 69 190 4.3 10.4 0.00 0.00 0.00 88 1006.6
20211024071909 69 190 4.3 12.2 0.00 0.00 0.00 88 1006.6
20211024071406 69 192 4.3 12.2 0.00 0.00 0.00 88 1006.7
20211024070905 69 197 4.3 8.7 0.00 0.00 0.00 88 1006.8
20211024070404 70 193 5.2 11.3 0.00 0.00 0.00 89 1006.8
20211024065903 70 192 5.2 11.3 0.00 0.00 0.00 89 1006.8
20211024065404 70 185 4.3 16.5 0.00 0.00 0.00 88 1006.8
20211024064902 70 186 4.3 16.5 0.00 0.00 0.00 88 1006.8
20211024064404 70 184 3.5 7.0 0.00 0.00 0.00 88 1006.8
20211024063905 70 180 4.3 12.2 0.00 0.00 0.00 88 1006.7
20211024063402 70 180 4.3 12.2 0.00 0.00 0.00 88 1006.8
20211024062905 70 188 3.5 8.7 0.00 0.00 0.00 88 1006.7
20211024062358 70 188 2.6 8.7 0.00 0.00 0.00 88 1006.7
20211024061856 70 187 2.6 7.8 0.00 0.00 0.00 88 1006.7
20211024061350 70 186 2.6 7.8 0.00 0.00 0.00 88 1006.8
20211024060844 70 186 3.5 8.7 0.00 0.00 0.00 88 1006.8
20211024060345 69 188 2.6 7.8 0.00 0.00 0.00 88 1006.8
20211024055848 69 186 3.5 8.7 0.00 0.00 0.00 88 1006.9
20211024055347 69 188 2.6 8.7 0.00 0.00 0.00 88 1006.9
20211024054843 69 187 2.6 6.1 0.00 0.00 0.00 88 1006.9
20211024054343 69 185 2.6 7.8 0.00 0.00 0.00 88 1006.9
20211024053841 69 186 2.6 8.7 0.00 0.00 0.00 88 1006.8
20211024053342 69 192 2.6 8.7 0.00 0.00 0.00 88 1006.9
20211024052842 69 190 3.5 11.3 0.00 0.00 0.00 88 1006.8
20211024052342 69 190 3.5 11.3 0.00 0.00 0.00 88 1006.8
20211024051833 69 186 3.5 7.8 0.00 0.00 0.00 88 1006.8
20211024051333 69 184 3.5 8.7 0.00 0.00 0.00 88 1006.7
20211024050832 69 183 2.6 8.7 0.00 0.00 0.00 88 1006.8
20211024050336 69 181 1.7 7.0 0.00 0.00 0.00 88 1006.8
20211024045834 69 180 2.6 7.8 0.00 0.00 0.00 88 1006.8
20211024045335 69 178 2.6 7.8 0.00 0.00 0.00 88 1006.7
20211024044831 69 178 2.6 6.1 0.00 0.00 0.00 88 1006.8
20211024044332 69 178 1.7 6.1 0.00 0.00 0.00 88 1006.9
20211024043830 69 184 1.7 5.2 0.00 0.00 0.00 88 1006.8
20211024043330 69 184 1.7 6.1 0.00 0.00 0.00 88 1006.8
20211024042831 69 184 1.7 6.1 0.00 0.00 0.00 87 1006.9
20211024042331 69 184 1.7 7.0 0.00 0.00 0.00 87 1006.8
20211024041829 69 184 2.6 7.0 0.00 0.00 0.00 87 1006.9